Time,TemperatureF,DewpointF,PressureIn,WindDirection,WindDirectionDegrees,WindSpeedMPH,WindSpeedGustMPH,Humidity,HourlyPrecipIn,Conditions,Clouds,dailyrainin,SoftwareType,DateUTC
2013-02-07 00:00:00,22.9,16.2,26.88,WSW,246,0.0,0.0,75,0.00,,,0.00,Wunderground v.1.15,2013-02-07 05:00:00,
2013-02-07 00:01:00,22.9,16.2,26.88,WSW,247,0.0,0.0,75,0.00,,,0.00,Wunderground v.1.15,2013-02-07 05:01:00,
2013-02-07 00:02:00,22.8,16.1,26.88,WSW,247,0.0,0.0,75,0.00,,,0.00,Wunderground v.1.15,2013-02-07 05:02:00,
2013-02-07 00:03:00,22.8,16.1,26.88,WSW,247,0.0,0.0,75,0.00,,,0.00,Wunderground v.1.15,2013-02-07 05:03:00,
2013-02-07 00:09:00,22.7,16.0,26.88,WSW,246,0.0,0.0,75,0.00,,,0.00,Wunderground v.1.15,2013-02-07 05:09:00,
2013-02-07 00:15:00,22.5,15.8,26.88,WSW,247,0.0,0.0,75,0.00,,,0.00,Wunderground v.1.15,2013-02-07 05:15:00,
2013-02-07 00:20:00,22.4,15.7,26.88,WSW,247,0.0,0.0,75,0.00,,,0.00,Wunderground v.1.15,2013-02-07 05:20:00,
2013-02-07 00:26:00,22.0,15.3,26.88,WSW,247,0.0,0.0,75,0.00,,,0.00,Wunderground v.1.15,2013-02-07 05:26:00,
2013-02-07 00:32:00,21.6,14.9,26.88,WSW,247,0.0,0.0,75,0.00,,,0.00,Wunderground v.1.15,2013-02-07 05:32:00,
2013-02-07 00:37:00,21.4,15.0,26.88,WSW,246,0.0,0.0,76,0.00,,,0.00,Wunderground v.1.15,2013-02-07 05:37:00,
2013-02-07 00:43:00,21.1,15.0,26.88,WSW,247,0.0,0.0,77,0.00,,,0.00,Wunderground v.1.15,2013-02-07 05:43:00,
2013-02-07 00:48:00,21.0,14.9,26.88,WSW,247,0.0,0.0,77,0.00,,,0.00,Wunderground v.1.15,2013-02-07 05:48:00,
2013-02-07 00:54:00,20.7,14.6,26.88,WSW,247,0.0,0.0,77,0.00,,,0.00,Wunderground v.1.15,2013-02-07 05:54:00,
2013-02-07 01:00:00,20.5,14.7,26.88,WSW,246,0.0,0.0,78,0.00,,,0.00,Wunderground v.1.15,2013-02-07 06:00:00,
2013-02-07 01:06:00,20.4,14.9,26.88,WSW,247,0.0,0.0,79,0.00,,,0.00,Wunderground v.1.15,2013-02-07 06:06:00,
2013-02-07 01:12:00,20.4,14.9,26.88,WSW,246,0.0,0.0,79,0.00,,,0.00,Wunderground v.1.15,2013-02-07 06:12:00,
2013-02-07 01:18:00,20.3,14.8,26.88,WSW,247,0.0,0.0,79,0.00,,,0.00,Wunderground v.1.15,2013-02-07 06:18:00,
2013-02-07 01:24:00,20.3,14.8,26.88,WSW,247,0.0,0.0,79,0.00,,,0.00,Wunderground v.1.15,2013-02-07 06:24:00,
2013-02-07 01:30:00,20.3,14.8,26.88,WSW,247,0.0,0.0,79,0.00,,,0.00,Wunderground v.1.15,2013-02-07 06:30:00,
2013-02-07 01:35:00,20.1,14.6,26.88,WSW,247,0.0,0.0,79,0.00,,,0.00,Wunderground v.1.15,2013-02-07 06:35:00,
2013-02-07 01:41:00,19.9,14.7,26.88,WSW,247,0.0,0.0,80,0.00,,,0.00,Wunderground v.1.15,2013-02-07 06:41:00,
2013-02-07 01:47:00,19.7,14.5,26.88,WSW,246,0.0,0.0,80,0.00,,,0.00,Wunderground v.1.15,2013-02-07 06:47:00,
2013-02-07 01:52:00,19.7,14.5,26.88,WSW,247,0.0,0.0,80,0.00,,,0.00,Wunderground v.1.15,2013-02-07 06:52:00,
2013-02-07 01:57:00,19.5,14.3,26.88,WSW,247,0.0,0.0,80,0.00,,,0.00,Wunderground v.1.15,2013-02-07 06:57:00,
2013-02-07 02:03:00,19.1,13.9,26.88,WSW,246,0.0,0.0,80,0.00,,,0.00,Wunderground v.1.15,2013-02-07 07:03:00,
2013-02-07 02:09:00,18.9,14.0,26.88,WSW,247,0.0,0.0,81,0.00,,,0.00,Wunderground v.1.15,2013-02-07 07:09:00,
2013-02-07 02:15:00,18.9,14.0,26.88,WSW,247,0.0,0.0,81,0.00,,,0.00,Wunderground v.1.15,2013-02-07 07:15:00,
2013-02-07 02:20:00,18.8,13.9,26.88,WSW,247,0.0,0.0,81,0.00,,,0.00,Wunderground v.1.15,2013-02-07 07:20:00,
2013-02-07 02:26:00,18.8,14.2,32.43,WSW,247,0.0,0.0,82,0.00,,,0.00,Wunderground v.1.15,2013-02-07 07:26:00,
2013-02-07 02:32:00,19.0,14.4,32.43,WSW,247,0.0,0.0,82,0.00,,,0.00,Wunderground v.1.15,2013-02-07 07:32:00,
2013-02-07 02:37:00,19.1,14.5,31.53,WSW,247,0.0,0.0,82,0.00,,,0.00,Wunderground v.1.15,2013-02-07 07:37:00,
2013-02-07 02:43:00,19.2,14.6,31.53,WSW,246,0.0,0.0,82,0.00,,,0.00,Wunderground v.1.15,2013-02-07 07:43:00,
2013-02-07 02:48:00,19.2,14.6,31.53,WSW,246,0.0,0.0,82,0.00,,,0.00,Wunderground v.1.15,2013-02-07 07:48:00,
2013-02-07 02:54:00,19.2,14.3,31.53,WSW,247,0.0,0.0,81,0.00,,,0.00,Wunderground v.1.15,2013-02-07 07:54:00,
2013-02-07 03:00:00,19.1,14.5,31.53,WSW,246,0.0,0.0,82,0.00,,,0.00,Wunderground v.1.15,2013-02-07 08:00:00,
2013-02-07 03:06:00,19.2,14.6,27.14,WSW,247,0.0,0.0,82,0.00,,,0.00,Wunderground v.1.15,2013-02-07 08:06:00,
2013-02-07 03:12:00,19.3,14.7,27.14,WSW,247,0.0,0.0,82,0.00,,,0.00,Wunderground v.1.15,2013-02-07 08:12:00,
2013-02-07 03:18:00,19.4,14.8,27.45,WSW,246,0.0,0.0,82,0.00,,,0.00,Wunderground v.1.15,2013-02-07 08:18:00,
2013-02-07 03:24:00,19.3,14.7,27.06,WSW,246,0.0,0.0,82,0.00,,,0.00,Wunderground v.1.15,2013-02-07 08:24:00,
2013-02-07 03:29:00,19.3,14.4,27.06,WSW,247,0.0,0.0,81,0.00,,,0.00,Wunderground v.1.15,2013-02-07 08:29:00,
2013-02-07 03:34:00,19.1,14.2,27.06,WSW,246,0.0,0.0,81,0.00,,,0.00,Wunderground v.1.15,2013-02-07 08:34:00,
2013-02-07 03:40:00,18.8,13.9,27.06,WSW,246,0.0,0.0,81,0.00,,,0.00,Wunderground v.1.15,2013-02-07 08:40:00,
2013-02-07 03:46:00,18.5,13.6,27.06,WSW,246,0.0,0.0,81,0.00,,,0.00,Wunderground v.1.15,2013-02-07 08:46:00,
2013-02-07 03:52:00,18.2,13.3,27.06,WSW,246,0.0,0.0,81,0.00,,,0.00,Wunderground v.1.15,2013-02-07 08:52:00,
2013-02-07 03:57:00,18.1,13.3,27.06,WSW,247,0.0,0.0,81,0.00,,,0.00,Wunderground v.1.15,2013-02-07 08:57:00,
2013-02-07 04:03:00,18.0,13.4,27.06,WSW,247,0.0,0.0,82,0.00,,,0.00,Wunderground v.1.15,2013-02-07 09:03:00,
2013-02-07 04:09:00,18.0,13.4,27.06,WSW,247,0.0,0.0,82,0.00,,,0.00,Wunderground v.1.15,2013-02-07 09:09:00,
2013-02-07 04:15:00,18.0,13.4,27.06,WSW,246,0.0,0.0,82,0.00,,,0.00,Wunderground v.1.15,2013-02-07 09:15:00,
2013-02-07 04:20:00,18.0,13.7,30.03,WSW,247,0.0,0.0,83,0.00,,,0.00,Wunderground v.1.15,2013-02-07 09:20:00,
2013-02-07 04:26:00,18.2,13.9,30.03,WSW,247,0.0,0.0,83,0.00,,,0.00,Wunderground v.1.15,2013-02-07 09:26:00,
2013-02-07 04:32:00,18.4,13.8,30.03,WSW,247,0.0,0.0,82,0.00,,,0.00,Wunderground v.1.15,2013-02-07 09:32:00,
2013-02-07 04:37:00,18.6,14.0,30.03,WSW,246,0.0,0.0,82,0.00,,,0.00,Wunderground v.1.15,2013-02-07 09:37:00,
2013-02-07 04:43:00,18.7,14.1,30.03,WSW,247,0.0,0.0,82,0.00,,,0.00,Wunderground v.1.15,2013-02-07 09:43:00,
2013-02-07 04:48:00,18.8,13.9,30.03,WSW,247,0.0,0.0,81,0.00,,,0.00,Wunderground v.1.15,2013-02-07 09:48:00,
2013-02-07 04:54:00,18.9,14.0,30.03,WSW,247,0.0,0.0,81,0.00,,,0.00,Wunderground v.1.15,2013-02-07 09:54:00,
2013-02-07 05:00:00,18.8,13.7,30.03,WSW,247,0.0,0.0,80,0.00,,,0.00,Wunderground v.1.15,2013-02-07 10:00:00,
2013-02-07 05:06:00,18.9,13.7,30.03,WSW,247,0.0,0.0,80,0.00,,,0.00,Wunderground v.1.15,2013-02-07 10:06:00,
2013-02-07 05:11:00,18.9,13.7,27.49,WSW,247,0.0,0.0,80,0.00,,,0.00,Wunderground v.1.15,2013-02-07 10:11:00,
2013-02-07 05:17:00,18.9,13.7,27.57,WSW,247,0.0,0.0,80,0.00,,,0.00,Wunderground v.1.15,2013-02-07 10:17:00,
2013-02-07 05:22:00,18.9,13.7,27.57,WSW,246,0.0,0.0,80,0.00,,,0.00,Wunderground v.1.15,2013-02-07 10:22:00,
2013-02-07 05:28:00,18.9,13.7,27.57,WSW,247,0.0,0.0,80,0.00,,,0.00,Wunderground v.1.15,2013-02-07 10:28:00,
2013-02-07 05:33:00,19.0,14.1,27.57,WSW,247,0.0,0.0,81,0.00,,,0.00,Wunderground v.1.15,2013-02-07 10:33:00,
2013-02-07 05:39:00,19.4,13.9,27.57,WSW,247,0.0,0.0,79,0.00,,,0.00,Wunderground v.1.15,2013-02-07 10:39:00,
2013-02-07 05:45:00,19.9,13.6,27.57,WSW,247,0.0,0.0,76,0.00,,,0.00,Wunderground v.1.15,2013-02-07 10:45:00,
2013-02-07 05:51:00,20.4,13.7,27.57,WSW,246,0.0,0.0,75,0.00,,,0.00,Wunderground v.1.15,2013-02-07 10:51:00,
2013-02-07 05:57:00,20.7,13.7,27.57,WSW,247,0.0,0.0,74,0.00,,,0.00,Wunderground v.1.15,2013-02-07 10:57:00,
2013-02-07 06:02:00,20.9,13.6,27.57,WSW,247,0.0,0.0,73,0.00,,,0.00,Wunderground v.1.15,2013-02-07 11:02:00,
2013-02-07 06:08:00,21.2,13.3,27.57,WSW,247,0.0,0.0,71,0.00,,,0.00,Wunderground v.1.15,2013-02-07 11:08:00,
2013-02-07 06:13:00,21.5,13.2,27.57,WSW,247,0.0,0.0,70,0.00,,,0.00,Wunderground v.1.15,2013-02-07 11:13:00,
2013-02-07 06:18:00,21.8,13.2,27.57,WSW,247,0.0,0.0,69,0.00,,,0.00,Wunderground v.1.15,2013-02-07 11:18:00,
2013-02-07 06:24:00,22.0,13.0,27.57,WSW,247,0.0,0.0,68,0.00,,,0.00,Wunderground v.1.15,2013-02-07 11:24:00,
2013-02-07 06:30:00,22.1,13.1,27.57,WSW,247,0.0,0.0,68,0.00,,,0.00,Wunderground v.1.15,2013-02-07 11:30:00,
2013-02-07 06:35:00,22.0,13.0,27.57,WSW,247,0.0,0.0,68,0.00,,,0.00,Wunderground v.1.15,2013-02-07 11:35:00,
2013-02-07 06:41:00,22.0,13.0,27.57,WSW,247,0.0,0.0,68,0.00,,,0.00,Wunderground v.1.15,2013-02-07 11:41:00,
2013-02-07 06:46:00,21.9,13.3,26.94,WSW,247,0.0,0.0,69,0.00,,,0.00,Wunderground v.1.15,2013-02-07 11:46:00,
2013-02-07 06:52:00,21.8,13.5,26.94,WSW,247,0.0,0.0,70,0.00,,,0.00,Wunderground v.1.15,2013-02-07 11:52:00,
2013-02-07 06:57:00,21.7,13.4,26.94,WSW,247,0.0,0.0,70,0.00,,,0.00,Wunderground v.1.15,2013-02-07 11:57:00,
2013-02-07 07:03:00,21.7,13.1,26.94,WSW,247,0.0,0.0,69,0.00,,,0.00,Wunderground v.1.15,2013-02-07 12:03:00,
2013-02-07 07:09:00,21.7,13.4,26.94,WSW,247,0.0,0.0,70,0.00,,,0.00,Wunderground v.1.15,2013-02-07 12:09:00,
2013-02-07 07:15:00,21.7,13.1,26.94,WSW,247,0.0,0.0,69,0.00,,,0.00,Wunderground v.1.15,2013-02-07 12:15:00,
2013-02-07 07:20:00,21.6,13.0,26.94,WSW,247,0.0,0.0,69,0.00,,,0.00,Wunderground v.1.15,2013-02-07 12:20:00,
2013-02-07 07:26:00,21.6,13.6,26.94,WSW,247,0.0,0.0,71,0.00,,,0.00,Wunderground v.1.15,2013-02-07 12:26:00,
2013-02-07 07:32:00,21.6,14.0,26.94,WSW,246,0.0,0.0,72,0.00,,,0.00,Wunderground v.1.15,2013-02-07 12:32:00,
2013-02-07 07:37:00,21.7,14.7,26.94,WSW,247,0.0,0.0,74,0.00,,,0.00,Wunderground v.1.15,2013-02-07 12:37:00,
2013-02-07 07:43:00,21.8,14.2,26.94,WSW,247,0.0,0.0,72,0.00,,,0.00,Wunderground v.1.15,2013-02-07 12:43:00,
2013-02-07 07:48:00,22.0,14.3,26.94,WSW,247,0.0,0.0,72,0.00,,,0.00,Wunderground v.1.15,2013-02-07 12:48:00,
2013-02-07 07:54:00,22.1,14.4,26.94,WSW,246,0.0,0.0,72,0.00,,,0.00,Wunderground v.1.15,2013-02-07 12:54:00,
2013-02-07 08:00:00,22.4,14.1,26.94,WSW,247,0.0,0.0,70,0.00,,,0.00,Wunderground v.1.15,2013-02-07 13:00:00,
2013-02-07 08:06:00,22.6,14.3,26.94,WSW,246,0.0,0.0,70,0.00,,,0.00,Wunderground v.1.15,2013-02-07 13:06:00,
2013-02-07 08:11:00,22.9,14.2,26.94,WSW,246,0.0,0.0,69,0.00,,,0.00,Wunderground v.1.15,2013-02-07 13:11:00,
2013-02-07 08:17:00,23.3,14.3,26.94,WSW,247,0.0,0.0,68,0.00,,,0.00,Wunderground v.1.15,2013-02-07 13:17:00,
2013-02-07 08:23:00,23.6,14.2,26.94,WSW,247,0.0,0.0,67,0.00,,,0.00,Wunderground v.1.15,2013-02-07 13:23:00,
2013-02-07 08:29:00,24.0,15.0,27.74,WSW,247,0.0,0.0,68,0.00,,,0.00,Wunderground v.1.15,2013-02-07 13:29:00,
2013-02-07 08:34:00,24.2,15.2,27.74,WSW,247,0.0,0.0,68,0.00,,,0.00,Wunderground v.1.15,2013-02-07 13:34:00,
2013-02-07 08:40:00,24.5,15.4,27.21,WSW,247,0.0,0.0,68,0.00,,,0.00,Wunderground v.1.15,2013-02-07 13:40:00,
2013-02-07 08:46:00,24.8,15.0,27.21,WSW,247,0.0,0.0,66,0.00,,,0.00,Wunderground v.1.15,2013-02-07 13:46:00,
2013-02-07 08:51:00,25.0,15.2,27.21,WSW,246,0.0,0.0,66,0.00,,,0.00,Wunderground v.1.15,2013-02-07 13:51:00,
2013-02-07 08:57:00,25.3,15.2,27.21,WSW,247,0.0,0.0,65,0.00,,,0.00,Wunderground v.1.15,2013-02-07 13:57:00,
2013-02-07 09:02:00,25.5,15.7,27.21,WSW,246,0.0,0.0,66,0.00,,,0.00,Wunderground v.1.15,2013-02-07 14:02:00,
2013-02-07 09:08:00,25.8,15.6,27.21,WSW,247,0.0,0.0,65,0.00,,,0.00,Wunderground v.1.15,2013-02-07 14:08:00,
2013-02-07 09:13:00,26.1,15.9,27.21,WSW,247,0.0,0.0,65,0.00,,,0.00,Wunderground v.1.15,2013-02-07 14:13:00,
2013-02-07 09:18:00,26.3,15.8,27.21,WSW,247,0.0,0.0,64,0.00,,,0.00,Wunderground v.1.15,2013-02-07 14:18:00,
2013-02-07 09:24:00,26.7,16.1,27.21,WSW,247,0.0,0.0,64,0.00,,,0.00,Wunderground v.1.15,2013-02-07 14:24:00,
2013-02-07 09:30:00,27.0,16.1,27.21,WSW,247,0.0,0.0,63,0.00,,,0.00,Wunderground v.1.15,2013-02-07 14:30:00,
2013-02-07 09:35:00,27.1,15.4,27.21,WSW,247,0.0,0.0,61,0.00,,,0.00,Wunderground v.1.15,2013-02-07 14:35:00,
2013-02-07 09:41:00,27.3,16.0,27.21,WSW,247,0.0,0.0,62,0.00,,,0.00,Wunderground v.1.15,2013-02-07 14:41:00,
2013-02-07 09:47:00,27.5,15.8,27.21,WSW,246,0.0,0.0,61,0.00,,,0.00,Wunderground v.1.15,2013-02-07 14:47:00,
2013-02-07 09:52:00,27.7,16.0,27.21,WSW,247,0.0,0.0,61,0.00,,,0.00,Wunderground v.1.15,2013-02-07 14:52:00,
2013-02-07 09:57:00,27.8,16.1,27.21,WSW,246,0.0,0.0,61,0.00,,,0.00,Wunderground v.1.15,2013-02-07 14:57:00,
2013-02-07 10:03:00,28.0,16.3,27.21,WSW,247,0.0,0.0,61,0.00,,,0.00,Wunderground v.1.15,2013-02-07 15:03:00,
2013-02-07 10:09:00,28.3,16.2,27.21,WSW,246,0.0,0.0,60,0.00,,,0.00,Wunderground v.1.15,2013-02-07 15:09:00,
2013-02-07 10:15:00,28.5,16.7,27.21,WSW,247,0.0,0.0,61,0.00,,,0.00,Wunderground v.1.15,2013-02-07 15:15:00,
2013-02-07 10:21:00,28.8,17.4,27.21,WSW,247,0.0,0.0,62,0.00,,,0.00,Wunderground v.1.15,2013-02-07 15:21:00,
2013-02-07 10:27:00,29.0,16.8,27.21,WSW,247,0.0,0.0,60,0.00,,,0.00,Wunderground v.1.15,2013-02-07 15:27:00,
2013-02-07 10:33:00,29.3,17.1,27.21,WSW,246,0.0,0.0,60,0.00,,,0.00,Wunderground v.1.15,2013-02-07 15:33:00,
2013-02-07 10:39:00,29.5,17.3,27.21,WSW,247,0.0,0.0,60,0.00,,,0.00,Wunderground v.1.15,2013-02-07 15:39:00,
2013-02-07 10:44:00,29.7,17.1,27.21,WSW,247,0.0,0.0,59,0.00,,,0.00,Wunderground v.1.15,2013-02-07 15:44:00,
2013-02-07 10:50:00,29.8,16.8,27.21,WSW,246,0.0,0.0,58,0.00,,,0.00,Wunderground v.1.15,2013-02-07 15:50:00,
2013-02-07 10:55:00,30.0,17.8,27.21,WSW,247,0.0,0.0,60,0.00,,,0.00,Wunderground v.1.15,2013-02-07 15:55:00,
2013-02-07 11:00:00,30.2,18.0,27.21,WSW,247,0.0,0.0,60,0.00,,,0.00,Wunderground v.1.15,2013-02-07 16:00:00,
2013-02-07 11:06:00,30.7,18.4,27.21,WSW,247,0.0,0.0,60,0.00,,,0.00,Wunderground v.1.15,2013-02-07 16:06:00,
2013-02-07 11:12:00,30.7,16.8,27.21,SW,233,1.0,2.0,56,0.00,,,0.00,Wunderground v.1.15,2013-02-07 16:12:00,
2013-02-07 11:18:00,30.5,17.5,27.21,SW,233,1.0,2.0,58,0.00,,,0.00,Wunderground v.1.15,2013-02-07 16:18:00,
2013-02-07 11:24:00,30.6,17.6,27.21,SW,233,0.0,1.0,58,0.00,,,0.00,Wunderground v.1.15,2013-02-07 16:24:00,
2013-02-07 11:30:00,30.7,18.1,27.21,SW,233,0.0,0.0,59,0.00,,,0.00,Wunderground v.1.15,2013-02-07 16:30:00,
2013-02-07 11:35:00,30.7,17.3,27.21,SW,233,0.0,3.0,57,0.00,,,0.00,Wunderground v.1.15,2013-02-07 16:35:00,
2013-02-07 11:41:00,30.6,17.6,27.21,SW,228,0.0,3.0,58,0.00,,,0.00,Wunderground v.1.15,2013-02-07 16:41:00,
2013-02-07 11:46:00,30.6,17.6,27.21,SW,227,0.0,3.0,58,0.00,,,0.00,Wunderground v.1.15,2013-02-07 16:46:00,
2013-02-07 11:51:00,30.7,17.7,27.21,SW,227,0.0,0.0,58,0.00,,,0.00,Wunderground v.1.15,2013-02-07 16:51:00,
2013-02-07 11:57:00,31.1,18.0,27.21,SW,227,0.0,0.0,58,0.00,,,0.00,Wunderground v.1.15,2013-02-07 16:57:00,
2013-02-07 12:03:00,31.3,17.8,27.21,SW,226,0.0,0.0,57,0.00,,,0.00,Wunderground v.1.15,2013-02-07 17:03:00,
2013-02-07 12:09:00,31.6,17.7,27.21,SW,229,0.0,2.0,56,0.00,,,0.00,Wunderground v.1.15,2013-02-07 17:09:00,
2013-02-07 12:15:00,32.0,18.5,27.21,SW,227,0.0,0.0,57,0.00,,,0.00,Wunderground v.1.15,2013-02-07 17:15:00,
2013-02-07 12:20:00,32.0,17.6,27.21,SW,226,0.0,0.0,55,0.00,,,0.00,Wunderground v.1.15,2013-02-07 17:20:00,
2013-02-07 12:26:00,32.0,17.6,27.21,SW,226,0.0,2.0,55,0.00,,,0.00,Wunderground v.1.15,2013-02-07 17:26:00,
2013-02-07 12:32:00,32.1,17.7,27.21,SW,225,0.0,0.0,55,0.00,,,0.00,Wunderground v.1.15,2013-02-07 17:32:00,
2013-02-07 12:37:00,32.0,17.6,27.21,SW,217,0.0,2.0,55,0.00,,,0.00,Wunderground v.1.15,2013-02-07 17:37:00,
2013-02-07 12:42:00,32.0,17.6,27.21,SSW,205,0.0,4.0,55,0.00,,,0.00,Wunderground v.1.15,2013-02-07 17:42:00,
2013-02-07 12:48:00,31.9,16.7,27.21,SSW,202,1.0,4.0,53,0.00,,,0.00,Wunderground v.1.15,2013-02-07 17:48:00,
2013-02-07 12:54:00,32.2,17.4,27.21,SSW,202,0.0,1.0,54,0.00,,,0.00,Wunderground v.1.15,2013-02-07 17:54:00,
2013-02-07 13:00:00,32.4,18.0,27.21,SSW,202,0.0,0.0,55,0.00,,,0.00,Wunderground v.1.15,2013-02-07 18:00:00,
2013-02-07 13:06:00,32.3,17.1,27.21,SSW,200,0.0,1.0,53,0.00,,,0.00,Wunderground v.1.15,2013-02-07 18:06:00,
2013-02-07 13:12:00,32.3,17.5,27.21,SSW,199,1.0,1.0,54,0.00,,,0.00,Wunderground v.1.15,2013-02-07 18:12:00,
2013-02-07 13:18:00,32.3,17.1,27.21,South,187,0.0,1.0,53,0.00,,,0.00,Wunderground v.1.15,2013-02-07 18:18:00,
2013-02-07 13:24:00,32.2,17.0,27.21,South,186,0.0,0.0,53,0.00,,,0.00,Wunderground v.1.15,2013-02-07 18:24:00,
2013-02-07 13:30:00,32.1,17.3,27.21,South,186,0.0,0.0,54,0.00,,,0.00,Wunderground v.1.15,2013-02-07 18:30:00,
2013-02-07 13:35:00,32.1,17.3,27.21,South,185,0.0,2.0,54,0.00,,,0.00,Wunderground v.1.15,2013-02-07 18:35:00,
2013-02-07 13:41:00,32.3,17.5,27.21,South,184,0.0,0.0,54,0.00,,,0.00,Wunderground v.1.15,2013-02-07 18:41:00,
2013-02-07 13:47:00,32.4,17.6,27.21,South,184,0.0,1.0,54,0.00,,,0.00,Wunderground v.1.15,2013-02-07 18:47:00,
2013-02-07 13:52:00,32.5,18.1,27.21,South,185,0.0,0.0,55,0.00,,,0.00,Wunderground v.1.15,2013-02-07 18:52:00,
2013-02-07 13:57:00,32.6,17.8,27.21,South,185,0.0,0.0,54,0.00,,,0.00,Wunderground v.1.15,2013-02-07 18:57:00,
2013-02-07 14:03:00,32.8,18.0,27.21,South,185,0.0,0.0,54,0.00,,,0.00,Wunderground v.1.15,2013-02-07 19:03:00,
2013-02-07 14:09:00,32.8,18.0,27.21,South,184,0.0,0.0,54,0.00,,,0.00,Wunderground v.1.15,2013-02-07 19:09:00,
2013-02-07 14:15:00,32.8,18.0,27.21,South,185,0.0,0.0,54,0.00,,,0.00,Wunderground v.1.15,2013-02-07 19:15:00,
2013-02-07 14:21:00,32.9,18.1,27.21,South,184,0.0,0.0,54,0.00,,,0.00,Wunderground v.1.15,2013-02-07 19:21:00,
2013-02-07 14:27:00,32.9,18.5,27.21,South,184,0.0,0.0,55,0.00,,,0.00,Wunderground v.1.15,2013-02-07 19:27:00,
2013-02-07 14:32:00,33.0,18.6,27.21,South,185,0.0,1.0,55,0.00,,,0.00,Wunderground v.1.15,2013-02-07 19:32:00,
2013-02-07 14:38:00,32.9,18.9,27.21,South,184,0.0,1.0,56,0.00,,,0.00,Wunderground v.1.15,2013-02-07 19:38:00,
2013-02-07 14:44:00,32.9,18.5,27.21,South,184,0.0,2.0,55,0.00,,,0.00,Wunderground v.1.15,2013-02-07 19:44:00,
2013-02-07 14:49:00,32.9,18.5,27.21,South,185,0.0,2.0,55,0.00,,,0.00,Wunderground v.1.15,2013-02-07 19:49:00,
2013-02-07 14:55:00,32.9,18.5,27.21,SSE,168,0.0,0.0,55,0.00,,,0.00,Wunderground v.1.15,2013-02-07 19:55:00,
2013-02-07 15:00:00,32.9,18.9,27.21,South,169,0.0,0.0,56,0.00,,,0.00,Wunderground v.1.15,2013-02-07 20:00:00,
2013-02-07 15:06:00,32.8,18.8,27.21,SSE,168,1.0,2.0,56,0.00,,,0.00,Wunderground v.1.15,2013-02-07 20:06:00,
2013-02-07 15:11:00,32.8,18.8,27.21,SSE,168,1.0,1.0,56,0.00,,,0.00,Wunderground v.1.15,2013-02-07 20:11:00,
2013-02-07 15:17:00,32.9,19.7,27.21,SSE,168,0.0,4.0,58,0.00,,,0.00,Wunderground v.1.15,2013-02-07 20:17:00,
2013-02-07 15:23:00,33.1,19.5,27.21,SSE,168,0.0,0.0,57,0.00,,,0.00,Wunderground v.1.15,2013-02-07 20:23:00,
2013-02-07 15:28:00,33.1,19.5,27.21,SSE,168,0.0,0.0,57,0.00,,,0.00,Wunderground v.1.15,2013-02-07 20:28:00,
2013-02-07 15:33:00,33.0,19.4,27.21,SSE,168,0.0,2.0,57,0.00,,,0.00,Wunderground v.1.15,2013-02-07 20:33:00,
2013-02-07 15:39:00,32.9,19.3,27.21,SSE,168,0.0,2.0,57,0.00,,,0.00,Wunderground v.1.15,2013-02-07 20:39:00,
2013-02-07 15:44:00,32.9,19.3,27.21,SSE,165,0.0,0.0,57,0.00,,,0.00,Wunderground v.1.15,2013-02-07 20:44:00,
2013-02-07 15:50:00,32.8,19.6,27.21,SSE,165,0.0,0.0,58,0.00,,,0.00,Wunderground v.1.15,2013-02-07 20:50:00,
2013-02-07 15:55:00,32.8,20.0,27.21,NNE,27,0.0,7.0,59,0.00,,,0.00,Wunderground v.1.15,2013-02-07 20:55:00,
2013-02-07 16:00:00,32.8,19.6,27.21,NNE,29,0.0,0.0,58,0.00,,,0.00,Wunderground v.1.15,2013-02-07 21:00:00,
2013-02-07 16:06:00,32.8,20.0,27.21,NNE,28,0.0,2.0,59,0.00,,,0.00,Wunderground v.1.15,2013-02-07 21:06:00,
2013-02-07 16:12:00,32.7,19.9,27.21,NE,42,0.0,0.0,59,0.00,,,0.00,Wunderground v.1.15,2013-02-07 21:12:00,
2013-02-07 16:17:00,32.6,19.8,27.21,ESE,122,0.0,0.0,59,0.00,,,0.00,Wunderground v.1.15,2013-02-07 21:17:00,
2013-02-07 16:23:00,32.5,20.5,27.21,ESE,102,1.0,1.0,61,0.00,,,0.00,Wunderground v.1.15,2013-02-07 21:23:00,
2013-02-07 16:29:00,32.5,20.9,27.21,ESE,103,0.0,4.0,62,0.00,,,0.00,Wunderground v.1.15,2013-02-07 21:29:00,
2013-02-07 16:34:00,32.5,20.9,27.21,ESE,115,1.0,4.0,62,0.00,,,0.00,Wunderground v.1.15,2013-02-07 21:34:00,
2013-02-07 16:40:00,32.3,21.1,27.21,ESE,118,1.0,1.0,63,0.00,,,0.00,Wunderground v.1.15,2013-02-07 21:40:00,
2013-02-07 16:46:00,32.0,20.8,27.21,ESE,119,0.0,2.0,63,0.00,,,0.00,Wunderground v.1.15,2013-02-07 21:46:00,
2013-02-07 16:51:00,31.8,21.0,27.21,ESE,122,1.0,1.0,64,0.00,,,0.00,Wunderground v.1.15,2013-02-07 21:51:00,
2013-02-07 16:57:00,31.5,20.7,27.21,ESE,122,1.0,2.0,64,0.00,,,0.00,Wunderground v.1.15,2013-02-07 21:57:00,
2013-02-07 17:03:00,31.3,20.9,27.21,ESE,121,0.0,0.0,65,0.00,,,0.00,Wunderground v.1.15,2013-02-07 22:03:00,
2013-02-07 17:09:00,31.0,20.6,27.21,ESE,121,0.0,1.0,65,0.00,,,0.00,Wunderground v.1.15,2013-02-07 22:09:00,
2013-02-07 17:15:00,30.8,20.4,27.21,ESE,121,0.0,2.0,65,0.00,,,0.00,Wunderground v.1.15,2013-02-07 22:15:00,
2013-02-07 17:20:00,30.7,20.3,27.21,ESE,121,0.0,0.0,65,0.00,,,0.00,Wunderground v.1.15,2013-02-07 22:20:00,
2013-02-07 17:26:00,30.5,20.1,27.21,ESE,121,1.0,2.0,65,0.00,,,0.00,Wunderground v.1.15,2013-02-07 22:26:00,
2013-02-07 17:32:00,30.3,19.9,27.21,ESE,122,1.0,1.0,65,0.00,,,0.00,Wunderground v.1.15,2013-02-07 22:32:00,
2013-02-07 17:37:00,30.2,20.2,27.21,ESE,122,0.0,1.0,66,0.00,,,0.00,Wunderground v.1.15,2013-02-07 22:37:00,
2013-02-07 17:43:00,30.0,19.7,27.21,ESE,120,0.0,0.0,65,0.00,,,0.00,Wunderground v.1.15,2013-02-07 22:43:00,
2013-02-07 17:48:00,29.8,19.1,27.21,ESE,119,0.0,0.0,64,0.00,,,0.00,Wunderground v.1.15,2013-02-07 22:48:00,
2013-02-07 17:54:00,29.7,19.0,27.21,ESE,119,1.0,2.0,64,0.00,,,0.00,Wunderground v.1.15,2013-02-07 22:54:00,
2013-02-07 17:59:00,29.5,18.8,27.21,ESE,119,0.0,2.0,64,0.00,,,0.00,Wunderground v.1.15,2013-02-07 22:59:00,
2013-02-07 18:05:00,29.4,19.1,27.21,ESE,119,0.0,0.0,65,0.00,,,0.00,Wunderground v.1.15,2013-02-07 23:05:00,
2013-02-07 18:11:00,29.2,18.9,27.21,ESE,119,0.0,0.0,65,0.00,,,0.00,Wunderground v.1.15,2013-02-07 23:11:00,
2013-02-07 18:17:00,29.1,18.4,27.21,ESE,103,0.0,1.0,64,0.00,,,0.00,Wunderground v.1.15,2013-02-07 23:17:00,
2013-02-07 18:22:00,29.0,18.0,27.21,ESE,105,1.0,2.0,63,0.00,,,0.00,Wunderground v.1.15,2013-02-07 23:22:00,
2013-02-07 18:28:00,29.0,18.0,27.21,ESE,106,0.0,2.0,63,0.00,,,0.00,Wunderground v.1.15,2013-02-07 23:28:00,
2013-02-07 18:33:00,28.9,17.9,27.21,ESE,106,0.0,0.0,63,0.00,,,0.00,Wunderground v.1.15,2013-02-07 23:33:00,
2013-02-07 18:39:00,28.9,17.9,27.21,ESE,106,0.0,0.0,63,0.00,,,0.00,Wunderground v.1.15,2013-02-07 23:39:00,
2013-02-07 18:45:00,28.8,17.8,27.21,ESE,106,0.0,0.0,63,0.00,,,0.00,Wunderground v.1.15,2013-02-07 23:45:00,
2013-02-07 18:50:00,28.8,18.1,27.21,ESE,105,0.0,0.0,64,0.00,,,0.00,Wunderground v.1.15,2013-02-07 23:50:00,
2013-02-07 18:56:00,28.8,17.8,27.21,ESE,105,0.0,0.0,63,0.00,,,0.00,Wunderground v.1.15,2013-02-07 23:56:00,
2013-02-07 19:01:00,28.8,18.5,27.21,ESE,105,0.0,0.0,65,0.00,,,0.00,Wunderground v.1.15,2013-02-08 00:01:00,
2013-02-07 19:06:00,28.8,18.1,27.21,ESE,105,0.0,0.0,64,0.00,,,0.00,Wunderground v.1.15,2013-02-08 00:06:00,
2013-02-07 19:12:00,28.8,17.8,27.21,ESE,105,0.0,1.0,63,0.00,,,0.00,Wunderground v.1.15,2013-02-08 00:12:00,
2013-02-07 19:18:00,28.7,18.4,27.21,ESE,105,0.0,1.0,65,0.00,,,0.00,Wunderground v.1.15,2013-02-08 00:18:00,
2013-02-07 19:24:00,28.7,18.1,27.21,ESE,105,0.0,0.0,64,0.00,,,0.00,Wunderground v.1.15,2013-02-08 00:24:00,
2013-02-07 19:30:00,28.6,18.3,27.21,ESE,105,0.0,0.0,65,0.00,,,0.00,Wunderground v.1.15,2013-02-08 00:30:00,
2013-02-07 19:36:00,28.5,18.2,27.21,ESE,105,0.0,0.0,65,0.00,,,0.00,Wunderground v.1.15,2013-02-08 00:36:00,
2013-02-07 19:42:00,28.4,18.1,27.21,ESE,105,0.0,0.0,65,0.00,,,0.00,Wunderground v.1.15,2013-02-08 00:42:00,
2013-02-07 19:47:00,28.4,18.1,27.21,ESE,105,0.0,0.0,65,0.00,,,0.00,Wunderground v.1.15,2013-02-08 00:47:00,
2013-02-07 19:53:00,28.3,18.0,27.21,ESE,105,0.0,0.0,65,0.00,,,0.00,Wunderground v.1.15,2013-02-08 00:53:00,
2013-02-07 19:58:00,28.3,18.4,27.21,ESE,105,0.0,0.0,66,0.00,,,0.00,Wunderground v.1.15,2013-02-08 00:58:00,
2013-02-07 20:03:00,28.2,17.9,27.21,ESE,105,0.0,0.0,65,0.00,,,0.00,Wunderground v.1.15,2013-02-08 01:03:00,
2013-02-07 20:09:00,28.1,18.2,27.21,ESE,105,0.0,0.0,66,0.00,,,0.00,Wunderground v.1.15,2013-02-08 01:09:00,
2013-02-07 20:15:00,28.1,18.2,27.21,ESE,105,0.0,0.0,66,0.00,,,0.00,Wunderground v.1.15,2013-02-08 01:15:00,
2013-02-07 20:20:00,28.1,18.2,27.21,ESE,105,0.0,0.0,66,0.00,,,0.00,Wunderground v.1.15,2013-02-08 01:20:00,
2013-02-07 20:26:00,28.0,18.1,27.21,ESE,105,0.0,0.0,66,0.00,,,0.00,Wunderground v.1.15,2013-02-08 01:26:00,
2013-02-07 20:32:00,28.0,18.1,27.21,ESE,105,0.0,0.0,66,0.00,,,0.00,Wunderground v.1.15,2013-02-08 01:32:00,
2013-02-07 20:37:00,28.0,18.1,27.21,ESE,105,0.0,0.0,66,0.00,,,0.00,Wunderground v.1.15,2013-02-08 01:37:00,
2013-02-07 20:42:00,28.1,18.5,27.21,ESE,105,0.0,0.0,67,0.00,,,0.00,Wunderground v.1.15,2013-02-08 01:42:00,
2013-02-07 20:48:00,28.1,18.5,27.21,ESE,105,0.0,0.0,67,0.00,,,0.00,Wunderground v.1.15,2013-02-08 01:48:00,
2013-02-07 20:54:00,28.1,18.5,27.21,ESE,105,0.0,0.0,67,0.00,,,0.00,Wunderground v.1.15,2013-02-08 01:54:00,
2013-02-07 21:00:00,28.1,18.5,27.21,ESE,105,0.0,0.0,67,0.00,,,0.00,Wunderground v.1.15,2013-02-08 02:00:00,
2013-02-07 21:06:00,28.1,18.9,27.21,ESE,105,0.0,0.0,68,0.00,,,0.00,Wunderground v.1.15,2013-02-08 02:06:00,
2013-02-07 21:11:00,28.1,18.5,27.21,ESE,105,0.0,0.0,67,0.00,,,0.00,Wunderground v.1.15,2013-02-08 02:11:00,
2013-02-07 21:17:00,28.1,18.5,27.21,ESE,105,0.0,0.0,67,0.00,,,0.00,Wunderground v.1.15,2013-02-08 02:17:00,
2013-02-07 21:23:00,28.1,18.9,27.21,ESE,105,0.0,0.0,68,0.00,,,0.00,Wunderground v.1.15,2013-02-08 02:23:00,
2013-02-07 21:28:00,28.1,18.9,27.21,ESE,105,0.0,0.0,68,0.00,,,0.00,Wunderground v.1.15,2013-02-08 02:28:00,
2013-02-07 21:33:00,28.1,18.9,27.21,ESE,105,0.0,0.0,68,0.00,,,0.00,Wunderground v.1.15,2013-02-08 02:33:00,
2013-02-07 21:39:00,28.2,19.3,27.21,ESE,105,0.0,0.0,69,0.00,,,0.00,Wunderground v.1.15,2013-02-08 02:39:00,
2013-02-07 21:45:00,28.2,19.3,28.63,ESE,105,0.0,0.0,69,0.00,,,0.00,Wunderground v.1.15,2013-02-08 02:45:00,
2013-02-07 21:51:00,28.2,19.3,28.63,ESE,105,0.0,0.0,69,0.00,,,0.00,Wunderground v.1.15,2013-02-08 02:51:00,
2013-02-07 21:56:00,28.3,19.8,28.63,ESE,105,0.0,0.0,70,0.00,,,0.00,Wunderground v.1.15,2013-02-08 02:56:00,
2013-02-07 22:02:00,28.4,19.5,28.63,ESE,105,0.0,0.0,69,0.00,,,0.00,Wunderground v.1.15,2013-02-08 03:02:00,
2013-02-07 22:08:00,28.4,19.5,28.63,ESE,105,0.0,0.0,69,0.00,,,0.00,Wunderground v.1.15,2013-02-08 03:08:00,
2013-02-07 22:14:00,28.5,19.6,28.63,ESE,105,0.0,0.0,69,0.00,,,0.00,Wunderground v.1.15,2013-02-08 03:14:00,
2013-02-07 22:19:00,28.6,19.7,28.63,ESE,105,0.0,0.0,69,0.00,,,0.00,Wunderground v.1.15,2013-02-08 03:19:00,
2013-02-07 22:25:00,28.7,19.8,28.63,ESE,105,0.0,0.0,69,0.00,,,0.00,Wunderground v.1.15,2013-02-08 03:25:00,
2013-02-07 22:31:00,28.8,19.9,28.63,ESE,105,0.0,0.0,69,0.00,,,0.00,Wunderground v.1.15,2013-02-08 03:31:00,
2013-02-07 22:36:00,28.8,19.9,28.63,ESE,105,0.0,0.0,69,0.00,,,0.00,Wunderground v.1.15,2013-02-08 03:36:00,
2013-02-07 22:42:00,28.9,20.3,28.63,ESE,103,0.0,0.0,70,0.00,,,0.00,Wunderground v.1.15,2013-02-08 03:42:00,
2013-02-07 22:48:00,28.9,20.3,28.63,ESE,103,0.0,0.0,70,0.00,,,0.00,Wunderground v.1.15,2013-02-08 03:48:00,
2013-02-07 22:54:00,29.0,20.4,28.63,ESE,103,0.0,0.0,70,0.00,,,0.00,Wunderground v.1.15,2013-02-08 03:54:00,
2013-02-07 23:00:00,29.1,20.9,28.63,ESE,103,0.0,0.0,71,0.00,,,0.00,Wunderground v.1.15,2013-02-08 04:00:00,
2013-02-07 23:06:00,29.1,20.9,28.63,ESE,103,0.0,0.0,71,0.00,,,0.00,Wunderground v.1.15,2013-02-08 04:06:00,
2013-02-07 23:12:00,29.2,21.0,28.63,ESE,103,0.0,0.0,71,0.00,,,0.00,Wunderground v.1.15,2013-02-08 04:12:00,
2013-02-07 23:18:00,29.2,21.3,28.63,ESE,103,0.0,0.0,72,0.00,,,0.00,Wunderground v.1.15,2013-02-08 04:18:00,
2013-02-07 23:24:00,29.3,21.4,28.63,ESE,103,0.0,0.0,72,0.00,,,0.00,Wunderground v.1.15,2013-02-08 04:24:00,
2013-02-07 23:30:00,29.3,21.4,28.63,ESE,103,0.0,0.0,72,0.00,,,0.00,Wunderground v.1.15,2013-02-08 04:30:00,
2013-02-07 23:35:00,29.4,21.8,28.63,ESE,103,0.0,0.0,73,0.00,,,0.00,Wunderground v.1.15,2013-02-08 04:35:00,
2013-02-07 23:41:00,29.4,21.8,28.63,ESE,103,0.0,0.0,73,0.00,,,0.00,Wunderground v.1.15,2013-02-08 04:41:00,
2013-02-07 23:47:00,29.5,21.9,28.63,ESE,103,0.0,0.0,73,0.00,,,0.00,Wunderground v.1.15,2013-02-08 04:47:00,
2013-02-07 23:52:00,29.5,21.9,28.63,East,88,0.0,2.0,73,0.00,,,0.00,Wunderground v.1.15,2013-02-08 04:52:00,
2013-02-07 23:58:00,29.5,21.9,28.63,East,87,0.0,2.0,73,0.00,,,0.00,Wunderground v.1.15,2013-02-08 04:58:00,